Hourly Weather Roundup
Issued by NWS Central Illinois

Home | Current Version | Previous Version | Text Only | Print | Product List | Glossary On
Versions: 1 2 3 4 5 6 7 8 9 10 11 12 13 14 15 16 17 18 19 20 21 22 23 24 25 26 27 28 29 30 31 32 33 34 35 36 37 38 39 40 41 42 43 44 45 46 47 48 49 50
470
NZUS43 KILX 251810
HWRILX

Area Weather Roundup
National Weather Service Lincoln IL
100 PM CDT TUE JUL 25 2017

NOTE:  "FAIR" indicates few or no clouds below 12,000 feet, with
       no sigificant weather and/or obstructions to visibility.


CITY           SKY/WX    TMP DP  RH WIND       PRES   REMARKS
Bloomington    MOSUNNY   80  65  59 E7        30.19S HX  82
6HR MIN TEMP:  61; 6HR MAX TEMP:  80;

Champaign      SUNNY     79  66  64 E6        30.18S HX  81
6HR MIN TEMP:  63; 6HR MAX TEMP:  80;

Danville       SUNNY     77  62  59 E9        30.16S
6HR MIN TEMP:  62; 6HR MAX TEMP:  77;

Decatur        SUNNY     81  66  60 VRB7      30.16S HX  83
6HR MIN TEMP:  63; 6HR MAX TEMP:  81;

Effingham      MOSUNNY   84  71  65 E5        30.15S HX  88
6HR MIN TEMP:  67; 6HR MAX TEMP:  84;

Flora          MOSUNNY   86  69  55 SE6       30.12S HX  90
6HR MIN TEMP:  70; 6HR MAX TEMP:  87;

Galesburg      MOSUNNY   79  68  68 E7        30.17S HX  81
6HR MIN TEMP:  62; 6HR MAX TEMP:  80;

Jacksonville   PTSUNNY   82  67  62 E10       30.14S HX  84
6HR MIN TEMP:  63; 6HR MAX TEMP:  83;

Lacon          MOSUNNY   78  65  65 SE5       30.17F HX  80
6HR MIN TEMP:  61; 6HR MAX TEMP:  79;

Lawrenceville  SUNNY     82  70  66 E8        30.14S HX  86
6HR MIN TEMP:  68; 6HR MAX TEMP:  82;

Litchfield     CLOUDY    84  69  60 E8        30.13S HX  88
6HR MIN TEMP:  67; 6HR MAX TEMP:  85;

$$


CITY           SKY/WX    TMP DP  RH WIND       PRES   REMARKS
Lincoln        MOSUNNY   82  67  61 NE6       30.17S HX  84
6HR MIN TEMP:  63; 6HR MAX TEMP:  82;

Macomb         MOSUNNY   80  68  66 E7        30.17F HX  83
6HR MIN TEMP:  60; 6HR MAX TEMP:  81;

Mattoon        MOSUNNY   81  68  64 E6        30.15S HX  84
6HR MIN TEMP:  66; 6HR MAX TEMP:  81;

Mt Carmel AP   MOSUNNY   82  70  65 E6        30.13F HX  86
6HR MIN TEMP:  68; 6HR MAX TEMP:  83;

Olney-Noble AP MOSUNNY   83  69  61 E9        30.13S HX  87
Paris AP       MOSUNNY   79  68  68 E6        30.17S HX  82
6HR MIN TEMP:  63; 6HR MAX TEMP:  79;

Peoria         MOSUNNY   81  67  62 SE8       30.16F HX  83
6HR MIN TEMP:  65; 6HR MAX TEMP:  81;

Pontiac        SUNNY     77  65  66 E6        30.20F
6HR MIN TEMP:  62; 6HR MAX TEMP:  77;

Rantoul        MOSUNNY   80  65  60 E6        30.18S HX  81
6HR MIN TEMP:  64; 6HR MAX TEMP:  80;

Robinson       SUNNY     81  69  66 SE8       30.15F HX  84
6HR MIN TEMP:  66; 6HR MAX TEMP:  81;

Springfield    PTSUNNY   86  70  58 NE8       30.15S HX  90
6HR MIN TEMP:  65; 6HR MAX TEMP:  86;

Taylorville    MOSUNNY   83  66  56 E5        30.15R HX  86
6HR MIN TEMP:  66; 6HR MAX TEMP:  83;

$$

...REGIONAL REPORTS...


CITY           SKY/WX    TMP DP  RH WIND       PRES   REMARKS
Chicago O`Hare MOSUNNY   79  55  43 S10       30.20S
Kankakee       SUNNY     77  59  54 SE8       30.21F
Moline         MOSUNNY   80  66  62 SE10      30.15F HX  82
Mount Sterling SUNNY     82  67  61 SE7       30.13F HX  84
Mount Vernon   CLOUDY    86  73  65 NE7       30.11F HX  93
Pittsfield     PTSUNNY   84  71  64 SE7       30.14S HX  89
Quincy         MOSUNNY   85  65  51 E8        30.12F HX  86
Rockford       PTSUNNY   78  62  57 S9        30.20F HX  80
$$


CITY           SKY/WX    TMP DP  RH WIND       PRES   REMARKS
Burlington     MOSUNNY   82  69  64 SE7       30.14S HX  85
Cedar Rapids   MOSUNNY   78  70  76 S8        30.13S HX  80
Des Moines     MOSUNNY   89  67  47 S14G21    30.06F HX  92
Kirksville     SUNNY     86  67  52 S6        30.12F HX  89
Ottumwa        SUNNY     86  64  47 SE9       30.09F HX  87
St Louis       MOSUNNY   89  71  55 E7        30.10S HX  95
$$


CITY           SKY/WX    TMP DP  RH WIND       PRES   REMARKS
Terre Haute    MOSUNNY   80  65  59 E5        30.16F HX  82
Evansville     SUNNY     85  69  58 E6        30.12S HX  89
Indianapolis   MOSUNNY   78  56  46 E12       30.17F
Lafayette      SUNNY     78  59  51 E10       30.18F
Madison        CLOUDY    75  61  61 S13       30.18F
Milwaukee      PTSUNNY   78  62  57 SE9G18    30.20F HX  80
$$






USA.gov is the U.S. government's official web portal to all federal, state and local government web resources and services.